Weather History for TKPK - May, 2013

Change the Weather History Date:

Wednesday, May 22, 2013

  Actual Average Record
Temperature  
Mean Temperature 78 °F -  
Max Temperature 81 °F 85 °F 89 °F (2015)
Min Temperature 74 °F 77 °F 72 °F (2012)
Cooling Degree Days 12    
Growing Degree Days 28 (Base 50)    
Moisture  
Dew Point 72 °F    
Average Humidity 78    
Maximum Humidity 94    
Minimum Humidity 69    
Precipitation  
Precipitation 0.02 in - - ()
Sea Level Pressure  
Sea Level Pressure 30.00 in    
Wind  
Wind Speed 13 mph ()    
Max Wind Speed 20 mph    
Max Gust Speed -    
Visibility 8.5 miles    
Events Rain    
Averages and records for this station are not official NWS values.
T = Trace of Precipitation, MM = Missing Value Source: Averaged Metar Reports

Daily Weather History Graph

Daily Weather History Graph

Search for Another Location

Airport or City:

Trip Planner

Search our weather history database for the weather conditions in past years. The results will help you decide how hot, cold, wet, or windy it might be!

Date:

Astronomy

May. 22, 2013 Rise Set
Actual Time 5:36 AM AST 6:38 PM AST
Civil Twilight 5:13 AM AST 7:01 PM AST
Nautical Twilight 4:45 AM AST 7:29 PM AST
Astronomical Twilight 4:17 AM AST 7:57 PM AST
Moon 4:13 PM AST (5/22) 3:14 AM AST (5/22)
Length of Visible Light 13h 48m
Length of Day
13h 01m
Waxing Gibbous, 91% of the Moon is Illuminated
May 22
Waxing Gibbous
May 25
Full
May 31
Last Quarter
Jun 8
New
Jun 16
First Quarter

Hourly Weather History & Observations

Time (AST) Temp. Heat Index Dew Point Humidity Pressure Visibility Wind Dir Wind Speed Gust Speed Precip Events Conditions
6:00 AM 77.0 °F - 73.4 °F 89% 29.95 in 6.2 mi East 11.5 mph - N/A   Mostly Cloudy
7:00 AM 78.8 °F - 73.4 °F 83% 29.98 in 6.2 mi NE 15.0 mph - N/A   Scattered Clouds
8:00 AM 79 °F - 74 °F 80% 30.02 in 12 mi ENE 13.8 mph - -   Mostly Cloudy
8:00 AM 78.8 °F - 73.4 °F 83% 30.01 in 6.2 mi ENE 13.8 mph - N/A   Mostly Cloudy
9:00 AM 77.0 °F - 75.2 °F 94% 30.01 in 6.2 mi NE 16.1 mph - N/A Rain Light Rain Showers
11:00 AM 80 °F - 72 °F 72% 30.02 in 16 mi East 18.4 mph - - Rain Light Rain Showers
11:00 AM 80.6 °F 85.4 °F 73.4 °F 79% 30.01 in 6.2 mi East 18.4 mph - N/A   Overcast
12:00 PM 80.6 °F 84.6 °F 71.6 °F 74% 30.01 in 6.2 mi East 15.0 mph - N/A   Mostly Cloudy
1:00 PM 80.6 °F 85.4 °F 73.4 °F 79% 30.01 in 6.2 mi East 18.4 mph - N/A   Scattered Clouds
2:00 PM 80 °F - 72 °F 70% 30.00 in 18 mi East 19.6 mph - -   Partly Cloudy
2:00 PM 80.6 °F 84.6 °F 71.6 °F 74% 29.98 in 6.2 mi East 19.6 mph - N/A   Partly Cloudy
3:00 PM 80.6 °F 84.6 °F 71.6 °F 74% 29.98 in 6.2 mi ENE 15.0 mph - N/A   Partly Cloudy
4:00 PM 80.6 °F 84.6 °F 71.6 °F 74% 29.98 in 6.2 mi ENE 15.0 mph - N/A   Partly Cloudy
5:00 PM 80 °F - 72 °F 69% 29.98 in 17 mi ENE 15.0 mph - -   Scattered Clouds
5:00 PM 80.6 °F 84.6 °F 71.6 °F 74% 29.98 in 6.2 mi ENE 15.0 mph - N/A   Partly Cloudy
6:00 PM 78.8 °F - 71.6 °F 78% 29.98 in 6.2 mi ENE 13.8 mph - N/A   Partly Cloudy
7:00 PM 78.8 °F - 71.6 °F 78% 29.98 in 6.2 mi ENE 17.3 mph - N/A   Scattered Clouds
8:00 PM 79 °F - 72 °F 74% 30.02 in 17 mi ENE 16.1 mph - -   Mostly Cloudy
8:00 PM 78.8 °F - 71.6 °F 78% 30.01 in 6.2 mi ENE 16.1 mph - N/A   Scattered Clouds
9:00 PM 78.8 °F - 71.6 °F 78% 30.04 in 6.2 mi NE 17.3 mph - N/A   Mostly Cloudy
10:00 PM 78.8 °F - 71.6 °F 78% 30.04 in 6.2 mi NE 13.8 mph - N/A   Scattered Clouds